Weather Roundup
Issued by NWS

Home | Current Version | Previous Version | Graphics & Text | Print | Product List | Glossary Off
Versions: 1 2 3 4 5 6 7 8 9 10 11 12 13 14 15 16 17 18 19 20 21 22 23 24 25 26 27 28 29 30 31 32 33 34 35 36 37 38 39 40 41 42 43 44 45 46 47 48 49 50

000
NZUS93 KARX 280159
HRRWXR

CURRENT HOURLY OBSERVATIONS ACROSS
MUCH OF THE UPPER MISSISSIPPI VALLEY
NATIONAL WEATHER SERVICE LA CROSSE WI
900 PM CDT WED AUG 27 2014


...SOUTHEAST MINNESOTA...


CITY           SKY/WX    TMP DP  RH WIND       PRES   REMARKS
ROCHESTER      CLEAR     64  58  80 E3        30.14R
ROCHESTER/MAYO FAIR      69  55  59 CALM      30.14R
WINONA         CLEAR     68  63  83 CALM      30.12S
AUSTIN         CLEAR     63  59  88 CALM      30.13R
ALBERT LEA     CLEAR     66  59  77 E3        30.13R
DODGE CENTER   CLEAR     63  59  88 E3        30.13S
PRESTON        CLEAR     66  62  86 CALM      30.14S
OWATONNA       CLEAR     64  59  82 E3        30.13R
FARIBAULT      CLEAR     64  57  77 CALM      30.12S
$$

...ELSEWHERE IN MINNESOTA...


CITY           SKY/WX    TMP DP  RH WIND       PRES   REMARKS
MINNEAPOLIS    PTCLDY    71  57  61 E9        30.12R
INTNL FALLS    CLEAR     52  50  93 CALM      30.11S
DULUTH         PTCLDY    61  53  75 E3        30.14R
RED WING       PTCLDY    66  61  82 CALM      30.11S
REDWOOD FALLS  CLEAR     66  59  78 S7        30.11R
MANKATO        CLEAR     66  55  68 SE5       30.12R
WORTHINGTON    PTCLDY    64  63  94 E6        30.12S
FAIRMONT       CLEAR     63  55  77 E3        30.12R
$$

...SOUTHWEST WISCONSIN...


CITY           SKY/WX    TMP DP  RH WIND       PRES   REMARKS
LA CROSSE      CLEAR     69  61  75 CALM      30.11R
PRAIRIE DU CHI PTCLDY    67  61  80 CALM      30.11R
BOSCOBEL       CLEAR     64  61  90 CALM      30.12R
LONE ROCK      NOT AVBL
PLATTEVILLE    PTCLDY    68  62  81 CALM      30.13R
FORT MC COY    CLEAR     64  61  90 CALM      30.12S
CAMP DOUGLAS   CLEAR     64  64 100 CALM      30.12S
VIROQUA        FAIR      63  63 100 CALM      30.13S
WIS DELLS      PTCLDY    64  59  84 CALM      30.12S
$$

...ELSEWHERE IN WISCONSIN...


CITY           SKY/WX    TMP DP  RH WIND       PRES   REMARKS
MILWAUKEE      PTCLDY    65  58  78 E7        30.14R
MADISON        PTCLDY    64  60  87 CALM      30.12R
GREEN BAY      CLEAR     62  57  83 SE7       30.14R
EAU CLAIRE     NOT AVBL
BLACK RVR FLS  FAIR      61  60  98 CALM      30.12S
MEDFORD        CLEAR     55  54  95 CALM      30.16R
WAUSAU         CLEAR     63  52  67 N5        30.13S
WIS RAPIDS     CLEAR     62  58  86 CALM      30.14S
MARSHFIELD     CLEAR     62  54  74 N5        30.14S
RICE LAKE      CLEAR     60  56  89 CALM      30.17R
$$

...NORTHEAST IOWA...


CITY           SKY/WX    TMP DP  RH WIND       PRES   REMARKS
WATERLOO       MOCLDY    67  61  81 E6        30.10R
DUBUQUE        PTCLDY    67  61  81 E5        30.13R
DECORAH        CLEAR     64  61  88 E3        30.12S
MASON CITY     PTCLDY    64  61  90 E3        30.14R
CHARLES CITY   PTCLDY    66  61  82 E6        30.12R
OELWEIN        CLOUDY    64  63  94 E5        30.13R
$$

...ELSEWHERE IN IOWA...


CITY           SKY/WX    TMP DP  RH WIND       PRES   REMARKS
DES MOINES     CLOUDY    74  67  78 CALM      30.09R
IOWA CITY      PTCLDY    71  64  78 CALM      30.11R
FORT DODGE     CLOUDY    66  63  88 SE6       30.12R
MARSHALLTOWN   MOCLDY    68  65  90 SE3       30.11R
CEDAR RAPIDS   PTCLDY    68  64  87 E5        30.10R
$$

...NORTHERN ILLINOIS...


CITY           SKY/WX    TMP DP  RH WIND       PRES   REMARKS
CHICAGO-OHARE  MOCLDY    70  59  68 NE8       30.12R
DUPAGE         PTCLDY    68  61  78 CALM      30.12R
CHICAGO-MIDWAY MOCLDY    72  62  71 E7        30.11R
MOLINE         CLEAR     69  63  81 CALM      30.10R
ROCKFORD       MOCLDY    71  62  73 NE9       30.13R
STERLING       PTCLDY    66  61  82 CALM      30.11R
PEORIA         CLOUDY    77  65  66 E5        30.09R
$$

NOTE: "FAIR" INDICATES FEW OR NO CLOUDS BELOW 12,000 FEET WITH NO
SIGNIFICANT WEATHER AND/OR OBSTRUCTIONS TO VISIBILITY. WIND
SPEEDS ARE IN MILES-PER-HOUR.



USA.gov is the U.S. government's official web portal to all federal, state and local government web resources and services.